{"data":{"norad_id":57413,"intl_designator":"2023-102K","name":"STARLINK-30191","alt_names":[],"object_type":"PAYLOAD","status":"ACTIVE","operator":null,"country":"US","launch_date":"2023-07-20","launch_site_code":"AFWTR","launch_vehicle":null,"mission":null,"orbit_class":"UNKNOWN","rcs_meters":null,"size_class":null,"mass_kg":null,"dimensions":null,"purposes":["comms"],"wikipedia_slug":null,"has_3d_model":false,"image_url":null,"decayed_at":null,"tle_current":{"epoch":"2026-05-24T23:15:30.264192Z","epoch_age_seconds":87889,"freshness":"FRESH","line1":"1 57413U 23102K   26144.96910028  .00000862  00000+0  40862-4 0  9999","line2":"2 57413  43.0033 115.8625 0001142 281.7036  78.3687 15.27574329158635","mean_motion":15.27574329,"eccentricity":0.0001142,"inclination_deg":43.0033,"raan_deg":115.8625,"arg_perigee_deg":281.7036,"mean_anomaly_deg":78.3687,"bstar":4.0862e-5,"rev_number":15863,"period_min":94.26709867157,"perigee_km":482.28252771491,"apogee_km":483.84962649772,"semimajor_km":6861.2030771063,"source":"CELESTRAK","updated_at":"2026-05-25T13:38:18.316719Z"}}}